Wind From: 10-12-2017 19:04 Until: 11-12-2017 16:00 warning for: Wind Level: Orange info button

Power and phone distribution networks may be disrupted for relatively long periods., Roofs and chimneys can be damaged. , Tree branches may break. , Vehicles can be deported. , Traffic may be disrupted, particularly on secondary roads in forest areas. Limit your trips. , Limit your speed in highway driving, especially if you drive a vehicle or hitch sensitive to wind. , Do not go for walks in forests or along the coast., In town, be vigilant against possible falling objects., Do not work on roofs and do not touch any electrical line fallen on the ground., Store or secure sensitive objects to wind or likely to be damaged., Always install power generators outside buildings. 


Meteo18 Weather Cam more information Meteo18 Weather Cam


Thunder radar more information blitzortung!


Rain radar more information rain snow radar


Visit our other weather sites:

Template documentation
and downloads

And another site



Weather Underground History page Text

Daily Summary for August 6, 2017 Units:  Metric    English   Both
« Previous Day
Next Day »
Daily Weekly Monthly Yearly Custom
  High: Low: Average:
Temperature: 23.8 °C 14.7 °C 18.7 °C
Dew Point: 12.0 °C 8.0 °C 9.8 °C
Humidity: 73 % 37 % 58 %
Wind Speed: 17.7 km/h 0.0 km/h 5.1 km/h
Wind Gust: 24.1 km/h - -
Wind:- - South
Pressure: 1025.3 hPa 1022.2 hPa -
Precipitation: 0.0 mm    
Historical Graphs
 
 
Tabular Data for August 6, 2017
Time Temperature Dew Point Pressure Wind Wind Speed Wind Gust Humidity Rainfall Rate (Hourly)
00:02 17.3 °C 10.7 °C 1022.6 hPa NW 3.2 km/h 11.3 km/h 65 % 0.0 mm
00:12 17.2 °C 10.6 °C 1022.6 hPa NW 6.4 km/h 9.7 km/h 65 % 0.0 mm
00:17 17.1 °C 10.5 °C 1022.6 hPa NW 3.2 km/h 9.7 km/h 65 % 0.0 mm
00:27 17.0 °C 10.4 °C 1022.6 hPa NW 4.8 km/h 9.7 km/h 65 % 0.0 mm
00:32 16.9 °C 10.3 °C 1022.6 hPa NW 3.2 km/h 9.7 km/h 65 % 0.0 mm
00:42 16.8 °C 10.2 °C 1022.6 hPa West 4.8 km/h 9.7 km/h 65 % 0.0 mm
00:47 16.8 °C 10.2 °C 1022.6 hPa NNW 4.8 km/h 11.3 km/h 65 % 0.0 mm
00:52 16.8 °C 10.2 °C 1022.9 hPa NW 4.8 km/h 11.3 km/h 65 % 0.0 mm
00:57 16.8 °C 10.2 °C 1022.9 hPa North 3.2 km/h 11.3 km/h 65 % 0.0 mm
01:02 16.7 °C 10.3 °C 1022.6 hPa Calm   9.7 km/h 66 % 0.0 mm
01:07 16.7 °C 10.3 °C 1022.9 hPa NW 1.6 km/h 8.0 km/h 66 % 0.0 mm
01:12 16.6 °C 10.2 °C 1022.9 hPa NNW 1.6 km/h 6.4 km/h 66 % 0.0 mm
01:17 16.6 °C 10.4 °C 1022.9 hPa NW 1.6 km/h 9.7 km/h 67 % 0.0 mm
01:22 16.6 °C 10.4 °C 1022.9 hPa WNW 4.8 km/h 9.7 km/h 67 % 0.0 mm
01:27 16.5 °C 10.6 °C 1022.9 hPa NNW 6.4 km/h 9.7 km/h 68 % 0.0 mm
01:32 16.4 °C 10.7 °C 1022.9 hPa North 1.6 km/h 11.3 km/h 69 % 0.0 mm
01:37 16.3 °C 10.6 °C 1022.9 hPa West 3.2 km/h 11.3 km/h 69 % 0.0 mm
01:42 16.3 °C 10.6 °C 1022.9 hPa NW 1.6 km/h 11.3 km/h 69 % 0.0 mm
01:47 16.2 °C 10.7 °C 1022.9 hPa WNW 1.6 km/h 11.3 km/h 70 % 0.0 mm
01:52 16.1 °C 10.6 °C 1022.9 hPa NW 3.2 km/h 8.0 km/h 70 % 0.0 mm
01:57 16.1 °C 10.6 °C 1022.9 hPa NNW 4.8 km/h 4.8 km/h 70 % 0.0 mm
02:02 16.1 °C 10.6 °C 1022.9 hPa NW 4.8 km/h 11.3 km/h 70 % 0.0 mm
02:07 16.0 °C 10.7 °C 1022.9 hPa West 8.0 km/h 11.3 km/h 71 % 0.0 mm
02:12 16.0 °C 10.7 °C 1022.9 hPa NW 4.8 km/h 11.3 km/h 71 % 0.0 mm
02:17 15.9 °C 10.4 °C 1022.9 hPa North 4.8 km/h 9.7 km/h 70 % 0.0 mm
02:22 15.9 °C 10.4 °C 1023.2 hPa NNW 3.2 km/h 9.7 km/h 70 % 0.0 mm
02:32 15.8 °C 10.3 °C 1023.2 hPa NNW 3.2 km/h 9.7 km/h 70 % 0.0 mm
02:37 15.7 °C 10.5 °C 1023.2 hPa North 3.2 km/h 8.0 km/h 71 % 0.0 mm
02:42 15.6 °C 10.4 °C 1023.2 hPa NNW 3.2 km/h 8.0 km/h 71 % 0.0 mm
02:47 15.5 °C 10.5 °C 1023.2 hPa NNW 1.6 km/h 6.4 km/h 72 % 0.0 mm
02:52 15.4 °C 10.4 °C 1023.2 hPa NNW 3.2 km/h 6.4 km/h 72 % 0.0 mm
02:57 15.4 °C 10.4 °C 1023.2 hPa North 1.6 km/h 6.4 km/h 72 % 0.0 mm
03:02 15.3 °C 10.3 °C 1023.2 hPa NNW 6.4 km/h 6.4 km/h 72 % 0.0 mm
03:07 15.4 °C 10.4 °C 1023.2 hPa NNW 3.2 km/h 9.7 km/h 72 % 0.0 mm
03:12 15.3 °C 10.5 °C 1023.2 hPa North 1.6 km/h 9.7 km/h 73 % 0.0 mm
03:17 15.3 °C 10.5 °C 1023.2 hPa NW 1.6 km/h 9.7 km/h 73 % 0.0 mm
03:22 15.3 °C 10.5 °C 1023.2 hPa NE 3.2 km/h 9.7 km/h 73 % 0.0 mm
03:27 15.4 °C 10.6 °C 1023.6 hPa NNW 8.0 km/h 9.7 km/h 73 % 0.0 mm
03:32 15.4 °C 10.4 °C 1023.6 hPa NNE 8.0 km/h 9.7 km/h 72 % 0.0 mm
03:37 15.4 °C 10.4 °C 1023.6 hPa North 3.2 km/h 9.7 km/h 72 % 0.0 mm
03:42 15.4 °C 10.4 °C 1023.6 hPa Calm   11.3 km/h 72 % 0.0 mm
03:47 15.4 °C 10.4 °C 1023.6 hPa North 3.2 km/h 11.3 km/h 72 % 0.0 mm
03:52 15.3 °C 10.5 °C 1023.6 hPa NNE 1.6 km/h 11.3 km/h 73 % 0.0 mm
03:57 15.2 °C 10.4 °C 1023.6 hPa North 1.6 km/h 8.0 km/h 73 % 0.0 mm
04:02 15.2 °C 10.4 °C 1023.6 hPa NNE 4.8 km/h 9.7 km/h 73 % 0.0 mm
04:07 15.2 °C 10.4 °C 1023.6 hPa NE 3.2 km/h 9.7 km/h 73 % 0.0 mm
04:12 15.1 °C 10.3 °C 1023.6 hPa North 3.2 km/h 9.7 km/h 73 % 0.0 mm
04:17 15.0 °C 10.2 °C 1023.6 hPa NNW 4.8 km/h 9.7 km/h 73 % 0.0 mm
04:22 15.1 °C 10.1 °C 1023.6 hPa NNW 8.0 km/h 14.5 km/h 72 % 0.0 mm
04:27 15.1 °C 10.1 °C 1023.6 hPa NNE 8.0 km/h 14.5 km/h 72 % 0.0 mm
04:32 15.0 °C 10.0 °C 1023.6 hPa North 6.4 km/h 14.5 km/h 72 % 0.0 mm
04:37 14.9 °C 10.1 °C 1023.6 hPa North 8.0 km/h 12.9 km/h 73 % 0.0 mm
04:42 14.9 °C 10.1 °C 1023.6 hPa NNW 3.2 km/h 11.3 km/h 73 % 0.0 mm
04:47 14.9 °C 9.9 °C 1023.6 hPa NW 3.2 km/h 12.9 km/h 72 % 0.0 mm
04:52 14.8 °C 10.0 °C 1023.6 hPa NNW 4.8 km/h 12.9 km/h 73 % 0.0 mm
04:57 14.8 °C 10.0 °C 1023.6 hPa North 4.8 km/h 12.9 km/h 73 % 0.0 mm
05:02 14.8 °C 10.0 °C 1023.6 hPa NNE 3.2 km/h 14.5 km/h 73 % 0.0 mm
05:07 14.8 °C 10.0 °C 1023.6 hPa NNW 8.0 km/h 14.5 km/h 73 % 0.0 mm
05:12 14.8 °C 10.0 °C 1023.6 hPa NNW 4.8 km/h 14.5 km/h 73 % 0.0 mm
05:17 14.8 °C 9.8 °C 1023.6 hPa NNW 9.7 km/h 14.5 km/h 72 % 0.0 mm
05:22 14.9 °C 9.9 °C 1023.6 hPa NW 6.4 km/h 14.5 km/h 72 % 0.0 mm
05:32 14.8 °C 9.8 °C 1023.6 hPa North 8.0 km/h 14.5 km/h 72 % 0.0 mm
05:37 14.8 °C 9.8 °C 1023.9 hPa NW 4.8 km/h 14.5 km/h 72 % 0.0 mm
05:42 14.8 °C 9.8 °C 1023.9 hPa NNW 6.4 km/h 12.9 km/h 72 % 0.0 mm
05:47 14.8 °C 9.8 °C 1023.9 hPa ENE 8.0 km/h 14.5 km/h 72 % 0.0 mm
05:52 14.8 °C 9.8 °C 1023.9 hPa NNW 4.8 km/h 14.5 km/h 72 % 0.0 mm
05:57 14.8 °C 9.8 °C 1023.9 hPa North 4.8 km/h 14.5 km/h 72 % 0.0 mm
06:02 14.8 °C 9.8 °C 1023.9 hPa NNE 8.0 km/h 11.3 km/h 72 % 0.0 mm
06:07 14.8 °C 9.8 °C 1023.9 hPa North 12.9 km/h 12.9 km/h 72 % 0.0 mm
06:12 14.9 °C 9.7 °C 1023.9 hPa NNE 8.0 km/h 14.5 km/h 71 % 0.0 mm
06:17 14.8 °C 9.8 °C 1023.9 hPa North 4.8 km/h 14.5 km/h 72 % 0.0 mm
06:22 14.8 °C 9.8 °C 1023.9 hPa North 3.2 km/h 14.5 km/h 72 % 0.0 mm
06:37 14.8 °C 9.8 °C 1023.9 hPa NNW 6.4 km/h 12.9 km/h 72 % 0.0 mm
06:42 14.8 °C 9.6 °C 1023.9 hPa NNE 4.8 km/h 12.9 km/h 71 % 0.0 mm
06:47 14.8 °C 9.8 °C 1023.9 hPa NNW 3.2 km/h 12.9 km/h 72 % 0.0 mm
06:52 14.8 °C 9.8 °C 1023.9 hPa NNW 9.7 km/h 12.9 km/h 72 % 0.0 mm
06:57 14.7 °C 9.7 °C 1023.9 hPa NNE 4.8 km/h 14.5 km/h 72 % 0.0 mm
07:02 14.7 °C 9.7 °C 1024.3 hPa NE 11.3 km/h 14.5 km/h 72 % 0.0 mm
07:07 14.7 °C 9.7 °C 1023.9 hPa NE 3.2 km/h 14.5 km/h 72 % 0.0 mm
07:12 14.7 °C 9.7 °C 1024.3 hPa NNE 6.4 km/h 14.5 km/h 72 % 0.0 mm
07:17 14.7 °C 9.7 °C 1023.9 hPa NE 6.4 km/h 12.9 km/h 72 % 0.0 mm
07:22 14.8 °C 9.8 °C 1024.3 hPa North 6.4 km/h 12.9 km/h 72 % 0.0 mm
07:27 14.8 °C 9.8 °C 1024.3 hPa NE 6.4 km/h 14.5 km/h 72 % 0.0 mm
07:32 14.8 °C 10.0 °C 1024.3 hPa North 6.4 km/h 14.5 km/h 73 % 0.0 mm
07:37 14.9 °C 9.9 °C 1024.3 hPa North 12.9 km/h 14.5 km/h 72 % 0.0 mm
07:42 15.1 °C 10.1 °C 1024.3 hPa NE 9.7 km/h 14.5 km/h 72 % 0.0 mm
07:47 15.1 °C 10.1 °C 1024.3 hPa North 11.3 km/h 19.3 km/h 72 % 0.0 mm
07:52 15.4 °C 10.2 °C 1024.3 hPa NE 11.3 km/h 19.3 km/h 71 % 0.0 mm
07:57 15.5 °C 10.3 °C 1024.3 hPa NNW 6.4 km/h 19.3 km/h 71 % 0.0 mm
08:02 15.6 °C 10.1 °C 1024.3 hPa North 9.7 km/h 19.3 km/h 70 % 0.0 mm
08:12 15.5 °C 10.3 °C 1024.6 hPa NNW 6.4 km/h 19.3 km/h 71 % 0.0 mm
08:17 15.6 °C 10.4 °C 1024.6 hPa NE 11.3 km/h 17.7 km/h 71 % 0.0 mm
08:22 15.9 °C 10.6 °C 1024.6 hPa North 6.4 km/h 17.7 km/h 71 % 0.0 mm
08:27 16.1 °C 10.6 °C 1024.9 hPa NE 4.8 km/h 20.9 km/h 70 % 0.0 mm
08:32 15.9 °C 10.4 °C 1024.9 hPa NNE 9.7 km/h 20.9 km/h 70 % 0.0 mm
08:37 15.8 °C 10.6 °C 1024.9 hPa North 6.4 km/h 20.9 km/h 71 % 0.0 mm
08:42 15.9 °C 10.6 °C 1024.9 hPa NE 6.4 km/h 14.5 km/h 71 % 0.0 mm
08:47 16.0 °C 10.7 °C 1024.9 hPa NNE 3.2 km/h 16.1 km/h 71 % 0.0 mm
08:52 16.2 °C 10.9 °C 1024.9 hPa NE 6.4 km/h 16.1 km/h 71 % 0.0 mm
08:57 16.3 °C 11.0 °C 1025.3 hPa NNW 4.8 km/h 16.1 km/h 71 % 0.0 mm
09:02 16.6 °C 11.1 °C 1025.3 hPa NE 8.0 km/h 16.1 km/h 70 % 0.0 mm
09:07 16.8 °C 11.1 °C 1025.3 hPa North 9.7 km/h 16.1 km/h 69 % 0.0 mm
09:12 16.9 °C 11.2 °C 1025.3 hPa NE 9.7 km/h 22.5 km/h 69 % 0.0 mm
09:17 16.9 °C 11.0 °C 1025.3 hPa NW 9.7 km/h 22.5 km/h 68 % 0.0 mm
09:22 17.2 °C 11.2 °C 1025.3 hPa NNE 16.1 km/h 22.5 km/h 68 % 0.0 mm
09:32 17.3 °C 11.1 °C 1025.3 hPa NNE 6.4 km/h 19.3 km/h 67 % 0.0 mm
09:37 17.4 °C 11.2 °C 1025.3 hPa NE 4.8 km/h 19.3 km/h 67 % 0.0 mm
09:42 17.5 °C 11.3 °C 1025.3 hPa NNE 17.7 km/h 19.3 km/h 67 % 0.0 mm
09:47 17.4 °C 11.0 °C 1025.3 hPa North 9.7 km/h 19.3 km/h 66 % 0.0 mm
09:52 17.5 °C 11.1 °C 1025.3 hPa NNE 11.3 km/h 20.9 km/h 66 % 0.0 mm
09:57 17.7 °C 11.3 °C 1025.3 hPa NNE 6.4 km/h 20.9 km/h 66 % 0.0 mm
10:02 17.9 °C 11.0 °C 1025.3 hPa NE 14.5 km/h 19.3 km/h 64 % 0.0 mm
10:12 17.9 °C 11.2 °C 1025.3 hPa NE 4.8 km/h 20.9 km/h 65 % 0.0 mm
10:17 17.9 °C 11.2 °C 1025.3 hPa ENE 4.8 km/h 20.9 km/h 65 % 0.0 mm
10:22 17.9 °C 11.0 °C 1025.3 hPa ENE 11.3 km/h 19.3 km/h 64 % 0.0 mm
10:32 18.3 °C 11.1 °C 1025.3 hPa ENE 6.4 km/h 17.7 km/h 63 % 0.0 mm
10:37 18.3 °C 11.1 °C 1025.3 hPa East 6.4 km/h 17.7 km/h 63 % 0.0 mm
10:42 18.4 °C 11.0 °C 1025.3 hPa NNW 11.3 km/h 17.7 km/h 62 % 0.0 mm
10:47 18.4 °C 11.0 °C 1025.3 hPa NNW 9.7 km/h 17.7 km/h 62 % 0.0 mm
10:52 18.8 °C 11.1 °C 1025.3 hPa NE 8.0 km/h 17.7 km/h 61 % 0.0 mm
10:57 18.8 °C 11.4 °C 1025.3 hPa NNW 6.4 km/h 16.1 km/h 62 % 0.0 mm
11:02 18.9 °C 11.5 °C 1025.3 hPa NNE 4.8 km/h 16.1 km/h 62 % 0.0 mm
11:07 19.2 °C 12.0 °C 1025.3 hPa North 9.7 km/h 16.1 km/h 63 % 0.0 mm
11:12 19.2 °C 11.7 °C 1025.3 hPa Calm   17.7 km/h 62 % 0.0 mm
11:22 19.2 °C 11.5 °C 1025.3 hPa North 4.8 km/h 17.7 km/h 61 % 0.0 mm
11:27 19.4 °C 11.4 °C 1025.3 hPa NE 3.2 km/h 14.5 km/h 60 % 0.0 mm
11:32 19.6 °C 11.4 °C 1025.3 hPa North 4.8 km/h 14.5 km/h 59 % 0.0 mm
11:37 19.9 °C 11.1 °C 1025.3 hPa NE 6.4 km/h 14.5 km/h 57 % 0.0 mm
11:42 20.1 °C 10.5 °C 1025.3 hPa NNW 9.7 km/h 22.5 km/h 54 % 0.0 mm
11:52 19.9 °C 10.6 °C 1025.3 hPa NNW 12.9 km/h 22.5 km/h 55 % 0.0 mm
11:57 20.0 °C 10.7 °C 1025.3 hPa West 4.8 km/h 16.1 km/h 55 % 0.0 mm
12:02 20.3 °C 10.4 °C 1025.3 hPa North 8.0 km/h 16.1 km/h 53 % 0.0 mm
12:07 20.2 °C 10.6 °C 1024.9 hPa NE 6.4 km/h 16.1 km/h 54 % 0.0 mm
12:12 20.3 °C 10.4 °C 1025.3 hPa North 6.4 km/h 16.1 km/h 53 % 0.0 mm
12:17 20.5 °C 10.9 °C 1025.3 hPa WNW 6.4 km/h 17.7 km/h 54 % 0.0 mm
12:22 20.6 °C 10.7 °C 1025.3 hPa NNE 8.0 km/h 17.7 km/h 53 % 0.0 mm
12:27 20.4 °C 10.5 °C 1024.9 hPa NNE 6.4 km/h 16.1 km/h 53 % 0.0 mm
12:32 20.5 °C 10.3 °C 1024.9 hPa WSW 1.6 km/h 16.1 km/h 52 % 0.0 mm
12:37 20.8 °C 10.3 °C 1024.9 hPa NW 8.0 km/h 16.1 km/h 51 % 0.0 mm
12:42 20.9 °C 10.7 °C 1024.9 hPa Calm   24.1 km/h 52 % 0.0 mm
12:47 20.9 °C 10.1 °C 1024.9 hPa ENE 14.5 km/h 24.1 km/h 50 % 0.0 mm
12:52 21.0 °C 10.2 °C 1024.9 hPa North 11.3 km/h 24.1 km/h 50 % 0.0 mm
12:57 21.3 °C 10.5 °C 1024.9 hPa NNW 3.2 km/h 20.9 km/h 50 % 0.0 mm
13:02 21.4 °C 10.5 °C 1024.9 hPa North 8.0 km/h 17.7 km/h 50 % 0.0 mm
13:07 21.1 °C 10.3 °C 1024.9 hPa NNE 12.9 km/h 22.5 km/h 50 % 0.0 mm
13:12 20.9 °C 9.5 °C 1024.9 hPa NNE 8.0 km/h 22.5 km/h 48 % 0.0 mm
13:17 21.1 °C 9.7 °C 1024.9 hPa West 1.6 km/h 22.5 km/h 48 % 0.0 mm
13:22 21.4 °C 9.9 °C 1024.6 hPa NW 3.2 km/h 14.5 km/h 48 % 0.0 mm
13:27 21.5 °C 9.4 °C 1024.6 hPa NNW 3.2 km/h 14.5 km/h 46 % 0.0 mm
13:32 21.8 °C 9.7 °C 1024.6 hPa NNE 9.7 km/h 16.1 km/h 46 % 0.0 mm
13:37 21.6 °C 9.5 °C 1024.6 hPa North 4.8 km/h 16.1 km/h 46 % 0.0 mm
13:42 21.7 °C 9.6 °C 1024.6 hPa ESE 1.6 km/h 16.1 km/h 46 % 0.0 mm
13:47 22.2 °C 9.4 °C 1024.6 hPa WSW 3.2 km/h 14.5 km/h 44 % 0.0 mm
13:52 22.2 °C 9.7 °C 1024.6 hPa WNW 3.2 km/h 14.5 km/h 45 % 0.0 mm
13:57 22.1 °C 8.9 °C 1024.3 hPa NW 3.2 km/h 14.5 km/h 43 % 0.0 mm
14:02 22.0 °C 9.5 °C 1024.3 hPa Calm   12.9 km/h 45 % 0.0 mm
14:07 22.4 °C 9.9 °C 1024.3 hPa NE 4.8 km/h 12.9 km/h 45 % 0.0 mm
14:12 22.6 °C 10.1 °C 1024.3 hPa NNW 6.4 km/h 12.9 km/h 45 % 0.0 mm
14:17 22.3 °C 9.5 °C 1024.3 hPa North 8.0 km/h 12.9 km/h 44 % 0.0 mm
14:22 22.1 °C 8.9 °C 1024.3 hPa WSW 3.2 km/h 12.9 km/h 43 % 0.0 mm
14:27 22.1 °C 8.9 °C 1024.3 hPa NNW 1.6 km/h 12.9 km/h 43 % 0.0 mm
14:32 22.3 °C 9.1 °C 1024.3 hPa North 3.2 km/h 12.9 km/h 43 % 0.0 mm
14:37 22.4 °C 9.5 °C 1024.3 hPa Calm   12.9 km/h 44 % 0.0 mm
14:42 22.7 °C 9.1 °C 1024.3 hPa East 6.4 km/h 12.9 km/h 42 % 0.0 mm
14:47 22.6 °C 9.4 °C 1024.3 hPa NE 8.0 km/h 8.0 km/h 43 % 0.0 mm
14:52 22.7 °C 9.8 °C 1024.3 hPa NNE 1.6 km/h 14.5 km/h 44 % 0.0 mm
14:57 22.6 °C 9.0 °C 1023.9 hPa NE 1.6 km/h 14.5 km/h 42 % 0.0 mm
15:02 22.6 °C 9.4 °C 1023.9 hPa Calm   14.5 km/h 43 % 0.0 mm
15:07 22.9 °C 9.3 °C 1023.9 hPa NNE 6.4 km/h 16.1 km/h 42 % 0.0 mm
15:12 22.9 °C 9.7 °C 1023.9 hPa NNW 6.4 km/h 16.1 km/h 43 % 0.0 mm
15:17 22.9 °C 9.3 °C 1024.3 hPa WNW 3.2 km/h 16.1 km/h 42 % 0.0 mm
15:22 22.9 °C 8.9 °C 1023.9 hPa East 3.2 km/h 14.5 km/h 41 % 0.0 mm
15:32 22.8 °C 8.9 °C 1023.9 hPa NNW 4.8 km/h 16.1 km/h 41 % 0.0 mm
15:37 22.8 °C 8.5 °C 1023.9 hPa West 4.8 km/h 17.7 km/h 40 % 0.0 mm
15:42 23.0 °C 9.4 °C 1023.9 hPa NNW 4.8 km/h 17.7 km/h 42 % 0.0 mm
15:47 23.4 °C 9.0 °C 1023.9 hPa WNW 4.8 km/h 12.9 km/h 40 % 0.0 mm
15:52 23.5 °C 8.7 °C 1023.9 hPa Calm   12.9 km/h 39 % 0.0 mm
15:57 23.3 °C 9.3 °C 1023.6 hPa Calm   12.9 km/h 41 % 0.0 mm
16:02 23.7 °C 9.7 °C 1023.9 hPa North 9.7 km/h 12.9 km/h 41 % 0.0 mm
16:07 23.4 °C 9.0 °C 1023.9 hPa East 1.6 km/h 16.1 km/h 40 % 0.0 mm
16:12 23.1 °C 8.8 °C 1023.6 hPa NNW 1.6 km/h 17.7 km/h 40 % 0.0 mm
16:17 23.1 °C 9.1 °C 1023.6 hPa ENE 8.0 km/h 17.7 km/h 41 % 0.0 mm
16:22 23.0 °C 8.7 °C 1023.6 hPa NNE 8.0 km/h 19.3 km/h 40 % 0.0 mm
16:32 23.1 °C 8.4 °C 1023.6 hPa NNW 1.6 km/h 19.3 km/h 39 % 0.0 mm
16:37 23.1 °C 8.4 °C 1023.6 hPa NNE 4.8 km/h 19.3 km/h 39 % 0.0 mm
16:42 23.2 °C 8.5 °C 1023.6 hPa Calm   19.3 km/h 39 % 0.0 mm
16:47 23.4 °C 9.4 °C 1023.6 hPa East 8.0 km/h 17.7 km/h 41 % 0.0 mm
16:52 23.1 °C 8.8 °C 1023.6 hPa ENE 3.2 km/h 14.5 km/h 40 % 0.0 mm
17:02 23.5 °C 8.7 °C 1023.6 hPa NNE 6.4 km/h 17.7 km/h 39 % 0.0 mm
17:12 23.3 °C 8.6 °C 1023.6 hPa NW 1.6 km/h 17.7 km/h 39 % 0.0 mm
17:17 23.4 °C 8.3 °C 1023.2 hPa NNE 4.8 km/h 12.9 km/h 38 % 0.0 mm
17:22 23.6 °C 8.8 °C 1023.2 hPa Calm   12.9 km/h 39 % 0.0 mm
17:27 23.8 °C 8.6 °C 1023.2 hPa Calm   12.9 km/h 38 % 0.0 mm
17:32 23.8 °C 8.6 °C 1023.2 hPa NNE 4.8 km/h 12.9 km/h 38 % 0.0 mm
17:37 23.7 °C 8.1 °C 1023.2 hPa NNE 11.3 km/h 12.9 km/h 37 % 0.0 mm
17:42 23.4 °C 8.7 °C 1023.2 hPa NW 1.6 km/h 19.3 km/h 39 % 0.0 mm
17:47 23.3 °C 8.6 °C 1023.2 hPa NE 8.0 km/h 19.3 km/h 39 % 0.0 mm
17:52 23.3 °C 8.6 °C 1023.2 hPa ESE 9.7 km/h 19.3 km/h 39 % 0.0 mm
17:57 23.3 °C 8.6 °C 1023.2 hPa East 9.7 km/h 14.5 km/h 39 % 0.0 mm
18:02 23.3 °C 8.2 °C 1023.2 hPa NE 9.7 km/h 14.5 km/h 38 % 0.0 mm
18:07 23.2 °C 8.5 °C 1023.2 hPa NNE 9.7 km/h 14.5 km/h 39 % 0.0 mm
18:12 23.3 °C 8.6 °C 1023.2 hPa ENE 8.0 km/h 19.3 km/h 39 % 0.0 mm
18:17 23.2 °C 8.5 °C 1023.2 hPa NNE 4.8 km/h 19.3 km/h 39 % 0.0 mm
18:22 23.2 °C 8.5 °C 1023.2 hPa East 4.8 km/h 19.3 km/h 39 % 0.0 mm
18:27 23.2 °C 8.5 °C 1023.2 hPa ENE 6.4 km/h 16.1 km/h 39 % 0.0 mm
18:32 23.2 °C 8.5 °C 1023.2 hPa ENE 6.4 km/h 17.7 km/h 39 % 0.0 mm
18:37 23.1 °C 8.4 °C 1023.2 hPa NNW 3.2 km/h 19.3 km/h 39 % 0.0 mm
18:47 23.3 °C 8.6 °C 1023.2 hPa NE 8.0 km/h 16.1 km/h 39 % 0.0 mm
18:52 23.3 °C 8.6 °C 1023.2 hPa ENE 8.0 km/h 16.1 km/h 39 % 0.0 mm
18:57 23.1 °C 8.0 °C 1023.2 hPa North 3.2 km/h 16.1 km/h 38 % 0.0 mm
19:02 23.1 °C 8.0 °C 1023.2 hPa ENE 3.2 km/h 20.9 km/h 38 % 0.0 mm
19:07 23.0 °C 8.3 °C 1023.2 hPa NE 6.4 km/h 20.9 km/h 39 % 0.0 mm
19:12 22.9 °C 8.6 °C 1023.2 hPa East 9.7 km/h 17.7 km/h 40 % 0.0 mm
19:17 22.9 °C 8.9 °C 1023.2 hPa ENE 8.0 km/h 17.7 km/h 41 % 0.0 mm
19:27 22.9 °C 8.6 °C 1023.2 hPa NE 3.2 km/h 14.5 km/h 40 % 0.0 mm
19:32 22.9 °C 8.2 °C 1023.2 hPa NE 14.5 km/h 14.5 km/h 39 % 0.0 mm
19:37 22.9 °C 8.2 °C 1023.2 hPa NE 11.3 km/h 14.5 km/h 39 % 0.0 mm
19:42 22.8 °C 8.5 °C 1023.2 hPa NE 1.6 km/h 14.5 km/h 40 % 0.0 mm
19:47 22.8 °C 8.1 °C 1023.2 hPa NE 8.0 km/h 14.5 km/h 39 % 0.0 mm
19:52 22.7 °C 8.4 °C 1022.9 hPa NNE 6.4 km/h 14.5 km/h 40 % 0.0 mm
19:57 22.7 °C 8.0 °C 1022.9 hPa NE 4.8 km/h 12.9 km/h 39 % 0.0 mm
20:02 22.6 °C 8.3 °C 1022.9 hPa ENE 4.8 km/h 12.9 km/h 40 % 0.0 mm
20:07 22.5 °C 8.6 °C 1022.9 hPa NE 3.2 km/h 11.3 km/h 41 % 0.0 mm
20:12 22.4 °C 8.9 °C 1022.9 hPa ENE 4.8 km/h 9.7 km/h 42 % 0.0 mm
20:22 22.0 °C 8.8 °C 1022.9 hPa ENE 4.8 km/h 11.3 km/h 43 % 0.0 mm
20:27 21.9 °C 9.1 °C 1022.9 hPa NE 4.8 km/h 11.3 km/h 44 % 0.0 mm
20:32 21.8 °C 9.0 °C 1022.9 hPa NE 4.8 km/h 11.3 km/h 44 % 0.0 mm
20:37 21.8 °C 9.0 °C 1022.9 hPa NE 3.2 km/h 8.0 km/h 44 % 0.0 mm
20:42 21.7 °C 8.9 °C 1022.9 hPa NE 8.0 km/h 9.7 km/h 44 % 0.0 mm
20:47 21.5 °C 8.7 °C 1022.9 hPa NNE 3.2 km/h 9.7 km/h 44 % 0.0 mm
20:52 21.3 °C 8.9 °C 1022.9 hPa NE 8.0 km/h 11.3 km/h 45 % 0.0 mm
20:57 21.1 °C 9.0 °C 1022.9 hPa NE 6.4 km/h 11.3 km/h 46 % 0.0 mm
21:02 20.9 °C 9.2 °C 1022.9 hPa NE 4.8 km/h 11.3 km/h 47 % 0.0 mm
21:07 20.6 °C 9.2 °C 1022.9 hPa NNE 3.2 km/h 8.0 km/h 48 % 0.0 mm
21:12 20.3 °C 9.2 °C 1022.9 hPa NE 3.2 km/h 8.0 km/h 49 % 0.0 mm
21:17 19.9 °C 9.2 °C 1022.9 hPa NE 1.6 km/h 8.0 km/h 50 % 0.0 mm
21:22 19.7 °C 9.3 °C 1022.9 hPa NE 3.2 km/h 6.4 km/h 51 % 0.0 mm
21:27 19.4 °C 9.0 °C 1022.9 hPa NNE 3.2 km/h 4.8 km/h 51 % 0.0 mm
21:32 19.2 °C 9.1 °C 1022.9 hPa NE 1.6 km/h 6.4 km/h 52 % 0.0 mm
21:37 19.0 °C 8.9 °C 1022.9 hPa Calm   6.4 km/h 52 % 0.0 mm
21:42 18.8 °C 9.0 °C 1022.9 hPa North 1.6 km/h 4.8 km/h 53 % 0.0 mm
21:47 18.7 °C 8.9 °C 1022.9 hPa North 1.6 km/h 3.2 km/h 53 % 0.0 mm
21:52 18.4 °C 8.9 °C 1023.2 hPa NNW 1.6 km/h 3.2 km/h 54 % 0.0 mm
21:57 18.2 °C 9.0 °C 1023.2 hPa NNW 3.2 km/h 3.2 km/h 55 % 0.0 mm
22:02 18.1 °C 9.2 °C 1023.2 hPa Calm   4.8 km/h 56 % 0.0 mm
22:07 17.9 °C 9.0 °C 1022.9 hPa Calm   4.8 km/h 56 % 0.0 mm
22:12 17.7 °C 9.1 °C 1023.2 hPa Calm   4.8 km/h 57 % 0.0 mm
22:17 17.6 °C 9.0 °C 1022.9 hPa Calm   4.8 km/h 57 % 0.0 mm
22:22 17.4 °C 9.1 °C 1023.2 hPa Calm   4.8 km/h 58 % 0.0 mm
22:27 17.2 °C 9.1 °C 1022.9 hPa Calm   4.8 km/h 59 % 0.0 mm
22:32 17.1 °C 9.0 °C 1022.9 hPa Calm   3.2 km/h 59 % 0.0 mm
22:37 16.9 °C 9.1 °C 1022.9 hPa Calm   1.6 km/h 60 % 0.0 mm
22:42 16.7 °C 9.1 °C 1022.9 hPa Calm   1.6 km/h 61 % 0.0 mm
22:47 16.7 °C 9.1 °C 1022.9 hPa Calm   3.2 km/h 61 % 0.0 mm
22:52 16.6 °C 9.0 °C 1022.9 hPa Calm   3.2 km/h 61 % 0.0 mm
22:57 16.6 °C 9.0 °C 1022.9 hPa NW 1.6 km/h 3.2 km/h 61 % 0.0 mm
23:02 16.6 °C 9.0 °C 1022.9 hPa Calm   4.8 km/h 61 % 0.0 mm
23:07 16.5 °C 9.0 °C 1022.9 hPa NNW 1.6 km/h 4.8 km/h 61 % 0.0 mm
23:12 16.4 °C 9.1 °C 1022.9 hPa Calm   3.2 km/h 62 % 0.0 mm
23:17 16.3 °C 9.0 °C 1022.6 hPa Calm   3.2 km/h 62 % 0.0 mm
23:22 16.2 °C 9.1 °C 1022.6 hPa NNW 1.6 km/h 3.2 km/h 63 % 0.0 mm
23:32 16.2 °C 8.9 °C 1022.6 hPa North 3.2 km/h 3.2 km/h 62 % 0.0 mm
23:37 16.1 °C 8.8 °C 1022.6 hPa Calm   3.2 km/h 62 % 0.0 mm
23:42 16.1 °C 8.8 °C 1022.6 hPa Calm   3.2 km/h 62 % 0.0 mm
23:47 15.9 °C 8.6 °C 1022.6 hPa Calm   3.2 km/h 62 % 0.0 mm
23:52 15.8 °C 8.8 °C 1022.2 hPa Calm   3.2 km/h 63 % 0.0 mm
23:57 15.6 °C 8.8 °C 1022.6 hPa Calm   1.6 km/h 64 % 0.0 mm
Meteo18
Compliments of Weather Underground - 4 mb

Script developed by  Jim McMurry - jmcmurry@mwt.net Adapted for the template by  Wim van der Kuil - Leuven-Template.eu

You find our weather info also at:

European Weather Network

Weather Underground

Equipment we use:

Weather-station
Davis Vue

Weather-program
Meteohub

Weather-server
Raspberry PI 2 B+

Provider
1 and 1

Davis Vue

Meteohub

Raspberry PI 2 B+

1 and 1